EHI
22 22 17 13 25 54 83 97 100 97 91 86 82 73 61 51 41 27 16 12 10 8 4 2 3 6 9 14 19 21 20 19 14 8 5 6 7 9 11 14 12 9 10
34 29 22 16 24 50 78 94 99 97 92 89 85 76 64 54 44 31 20 14 10 8 5 3 3 5 6 9 12 13 13 11 7 4 3 3 5 6 9 13 13 11 11
55 44 31 24 26 43 68 87 95 95 92 89 85 78 69 59 48 34 24 17 12 8 5 3 3 3 3 4 6 6 5 3 2 3 2 1 2 4 7 13 16 16 14
69 57 43 38 38 44 60 77 88 90 88 85 81 74 67 58 46 34 25 19 13 7 3 1 1 1 1 3 4 3 2 2 3 5 3 1 2 5 10 15 19 19 18
72 63 55 54 55 56 60 70 81 84 81 79 74 68 62 54 42 30 22 16 10 4 1 0 0 0 0 1 2 1 1 2 3 4 3 1 3 7 12 16 19 19 18
67 62 62 66 67 65 63 67 77 80 76 73 70 64 59 50 36 24 16 12 6 2 0 0 0 1 1 0 0 0 0 1 1 1 2 3 4 9 13 16 18 17 15
65 63 66 70 70 65 62 65 74 76 72 69 67 61 53 44 30 17 10 7 5 2 0 0 1 2 2 1 0 0 0 1 0 0 1 3 5 9 13 15 16 16 14
71 69 68 67 63 59 58 62 69 70 68 66 60 53 45 34 23 13 6 4 3 1 0 0 2 3 3 2 0 0 0 0 0 0 0 2 5 10 14 15 16 16 14
76 75 73 67 60 55 55 57 62 65 66 61 53 44 35 25 16 9 4 1 1 0 0 0 1 2 2 1 1 1 1 0 0 0 0 3 7 11 13 16 17 16 15
76 75 75 71 65 61 57 53 55 60 62 56 46 37 28 19 11 6 3 1 0 0 0 0 0 1 1 1 1 2 1 0 0 0 1 5 11 15 17 18 18 16 14
67 66 66 66 69 70 65 57 54 55 54 47 38 31 23 13 7 4 2 1 0 0 0 0 0 0 0 0 1 1 1 0 0 1 2 7 15 20 22 22 21 16 12
57 56 52 56 68 75 74 69 63 57 50 40 30 23 15 7 4 4 3 1 0 0 0 0 0 0 0 0 0 0 0 0 0 1 3 8 17 23 25 25 23 17 13
55 52 46 50 64 73 78 80 75 65 53 37 25 17 9 4 4 4 4 2 1 0 0 0 0 0 0 0 0 0 0 0 0 1 3 9 18 25 28 27 22 16 15
54 53 50 51 59 68 77 82 79 69 54 35 22 13 6 3 3 3 2 2 1 0 0 1 0 0 0 0 0 0 0 0 0 0 2 8 17 25 30 28 22 16 15
48 51 52 52 56 63 71 77 73 61 47 31 19 11 5 3 2 1 0 0 0 0 0 0 0 0 0 0 0 0 0 0 0 0 2 7 15 22 28 30 25 17 15
42 46 51 52 55 59 64 67 62 50 37 26 17 9 4 3 1 0 0 0 0 0 0 0 0 0 0 0 0 0 0 0 0 0 1 4 10 16 23 28 26 19 14
40 45 52 54 54 54 53 51 47 39 29 20 12 6 3 3 1 0 0 0 0 0 0 0 0 0 0 0 0 0 0 0 0 0 0 2 5 10 15 20 22 18 13
43 47 55 56 50 44 39 34 31 26 20 12 7 4 3 3 2 1 0 0 0 0 0 0 0 0 0 0 0 0 0 0 0 0 0 1 2 5 8 13 15 13 10
42 46 51 51 44 36 28 23 17 13 9 5 3 3 3 2 2 1 0 0 0 0 0 0 0 0 0 0 0 0 0 0 0 0 0 0 1 2 4 7 8 8 6
38 43 47 45 39 31 24 16 8 5 3 1 1 2 1 1 1 0 0 0 0 0 0 0 0 0 0 0 0 0 0 0 0 0 0 0 0 0 1 2 3 3 3
33 37 42 42 36 31 25 15 7 4 2 0 0 0 0 0 0 0 0 0 0 0 0 0 0 0 0 0 0 0 0 0 0 0 0 0 0 0 0 0 1 1 1
26 29 33 35 35 32 27 18 9 4 2 0 0 0 0 0 0 0 0 0 0 0 0 0 0 0 0 0 0 0 0 0 0 0 0 0 0 0 0 0 0 0 0
19 20 21 24 26 27 25 19 10 4 1 0 0 0 0 0 0 0 0 0 0 0 0 0 0 0 0 0 0 0 0 0 0 0 0 0 0 0 0 0 0 0 0
15 15 15 16 17 19 20 17 11 5 2 1 0 0 0 0 0 0 0 0 0 0 0 0 0 0 0 0 0 0 0 0 0 0 0 0 0 0 0 0 0 0 0
13 14 14 15 15 15 15 13 9 5 2 1 0 0 0 0 0 0 0 0 0 0 0 0 0 0 0 0 0 0 0 0 0 0 0 0 0 0 0 0 0 0 0
13 14 15 17 16 14 11 8 6 3 1 0 1 1 1 0 0 0 0 0 0 0 0 0 0 0 0 0 0 0 0 0 0 0 0 0 0 0 0 0 0 0 0
Wind_Speed
8 11 17 17 16 15 16 18 19 20 20 20 20 19 19 18 17 16 16 15 14 13 13 13 13 13 14 15 15 16 16 17 17 17 17 16 16 16 16 16 15 12 16
13 14 18 18 17 17 17 18 19 19 19 19 19 19 18 18 17 16 15 15 14 14 13 13 13 14 14 14 15 15 15 15 15 15 16 15 16 15 15 15 14 10 15
15 14 16 18 18 18 18 18 18 19 19 19 18 18 18 17 17 16 15 15 14 14 14 13 13 14 14 14 14 14 14 14 14 14 14 10 12 15 15 15 15 14 14
14 12 14 19 18 19 19 19 18 19 19 19 18 18 17 17 16 16 15 15 14 14 14 13 13 13 13 13 13 13 13 13 12 13 8 8 9 14 15 15 14 14 13
11 11 14 20 17 18 18 19 18 18 18 18 18 17 17 16 15 15 15 14 14 13 13 13 13 12 12 12 11 11 11 11 11 10 7 7 7 13 14 14 14 14 13
9 9 13 19 17 17 17 18 18 18 17 17 17 16 16 15 14 14 14 13 13 12 12 12 12 11 11 10 9 9 9 10 10 7 6 7 7 12 14 14 14 13 13
10 7 10 17 17 17 17 16 16 17 16 15 15 15 15 14 13 13 13 12 12 11 11 11 11 10 9 8 8 7 7 9 7 7 7 7 8 12 13 13 13 13 12
11 9 9 16 18 17 17 16 15 15 14 14 14 14 14 13 12 12 12 11 11 10 10 10 9 9 7 6 6 5 6 8 8 7 7 7 8 12 13 13 13 13 12
10 10 8 9 13 16 16 15 14 14 13 13 13 13 13 13 12 11 10 10 10 9 9 8 8 7 6 5 4 3 4 7 6 5 7 6 8 12 13 13 13 12 12
8 9 9 8 8 8 10 15 16 14 14 14 14 13 13 12 11 11 9 8 9 8 8 7 6 5 4 3 2 1 2 5 5 5 4 6 11 13 13 13 13 13 12
9 8 8 8 8 8 8 12 13 14 13 13 11 13 11 5 5 6 8 8 8 8 7 6 5 4 3 1 1 1 1 1 4 4 4 9 13 14 14 13 13 13 13
12 11 8 9 9 9 8 7 6 6 6 6 5 6 4 4 3 5 6 9 8 7 6 6 5 3 2 1 1 1 1 2 3 3 5 11 14 14 14 14 14 14 14
13 13 11 10 10 9 6 6 5 4 4 4 5 5 4 3 3 3 2 3 3 4 2 2 2 1 1 1 1 1 2 3 3 3 5 11 13 15 15 15 15 15 15
12 14 13 12 10 9 7 7 6 5 5 5 5 6 4 3 3 3 2 2 2 1 2 1 1 2 2 3 3 3 4 3 4 3 5 12 13 15 16 16 16 16 15
12 12 13 13 12 10 7 7 7 6 6 6 5 6 6 5 4 3 2 2 3 2 2 2 2 3 3 3 3 4 5 6 6 5 4 11 13 15 16 17 17 17 16
11 12 11 13 12 10 8 7 7 6 6 5 5 7 7 5 4 4 3 3 3 3 3 3 3 3 3 2 3 4 4 5 5 6 5 7 12 14 15 17 17 18 17
10 10 11 12 11 11 9 9 7 6 6 6 6 6 7 6 5 4 3 4 4 3 3 2 2 1 2 2 3 3 3 4 4 5 5 5 6 11 14 15 15 16 18
8 8 10 11 11 10 8 8 6 6 6 5 5 5 7 7 6 4 4 4 4 3 3 2 2 1 2 2 2 2 2 2 3 4 4 4 4 5 9 12 13 14 16
8 8 8 7 8 9 7 6 4 5 5 4 4 4 5 6 6 5 4 3 3 2 2 3 2 2 2 2 2 2 2 2 2 3 3 4 4 4 4 7 12 14 15
6 7 8 6 6 6 5 4 2 3 3 3 3 4 5 4 5 4 3 2 2 2 2 2 2 2 2 2 1 1 1 1 2 2 3 2 2 3 3 3 5 7 12
5 7 7 7 5 5 4 4 4 3 3 2 2 3 3 3 4 4 3 2 2 2 2 3 2 1 1 1 0 1 2 1 1 2 2 2 2 2 1 2 2 2 3
4 4 5 5 6 5 4 3 2 3 2 2 2 2 2 3 3 3 4 3 2 2 1 1 1 1 1 1 1 1 2 2 1 2 2 2 2 2 2 2 2 2 2
5 4 4 4 4 4 5 3 3 3 3 2 3 3 5 5 5 5 4 3 3 2 1 1 0 1 1 1 1 1 2 2 1 2 3 3 3 3 3 3 3 2 2
6 5 5 5 4 3 4 4 5 5 4 3 3 5 7 8 8 7 6 6 5 4 4 3 3 1 0 0 0 0 1 0 1 1 1 3 4 5 5 4 4 4 4
8 7 7 7 6 4 5 6 6 5 5 5 6 9 8 8 10 9 9 8 7 6 6 6 6 5 3 2 2 1 1 1 1 1 1 2 3 4 5 5 4 4 4
10 9 8 8 8 7 9 9 9 9 8 8 8 8 7 7 8 10 10 9 9 8 8 7 7 8 6 7 5 5 4 3 2 1 1 1 1 3 4 5 5 4 4
Wind_Direction
152 154 158 155 150 142 133 126 123 122 122 123 126 127 128 128 129 129 129 128 126 124 122 119 116 114 114 114 115 116 119 121 123 126 126 126 124 122 121 119 118 117 118
146 153 156 155 151 145 137 131 127 126 125 126 127 128 128 129 129 130 130 129 128 125 123 122 121 119 119 119 120 121 123 126 130 132 131 129 127 125 124 123 122 124 123
144 151 154 155 153 148 141 135 131 130 129 129 129 129 129 130 130 131 131 130 129 127 126 124 123 122 122 122 123 124 125 128 129 130 127 126 129 131 130 130 129 127 126
144 147 152 156 155 150 145 140 136 134 133 131 131 131 131 131 132 132 132 131 130 129 129 128 125 123 123 125 126 126 125 125 125 123 121 131 136 138 137 136 134 132 130
142 145 155 157 156 152 148 144 140 137 136 135 134 134 133 133 133 133 134 133 133 132 132 130 128 127 126 126 126 128 129 131 133 124 126 133 135 143 142 141 140 138 136
140 148 158 158 157 153 151 149 145 141 140 138 137 136 135 135 135 136 136 136 136 136 135 133 130 130 129 129 128 129 134 141 137 135 135 138 142 150 148 147 145 143 143
142 149 160 158 157 156 155 153 149 146 144 142 141 140 139 139 139 140 140 141 141 141 138 136 133 132 130 128 126 127 137 145 140 146 148 149 155 157 155 153 151 150 150
146 150 157 162 161 161 160 156 153 150 148 146 145 145 144 144 144 145 146 147 148 147 145 142 139 136 132 127 124 124 138 145 149 156 158 160 167 164 162 159 157 157 156
148 152 156 162 166 166 163 160 158 155 152 151 150 151 151 151 151 153 152 154 155 156 155 152 148 144 139 133 128 130 144 152 149 161 168 170 177 173 169 166 165 163 161
150 158 159 161 160 160 163 167 165 161 159 158 158 159 159 159 160 161 159 165 167 168 168 165 162 157 151 145 141 158 173 146 157 170 174 180 184 181 176 174 173 171 169
160 162 164 163 158 155 159 171 169 168 167 166 166 168 164 157 160 165 172 179 181 182 183 181 182 178 173 168 193 231 181 147 174 181 183 192 190 188 183 181 180 178 177
173 172 173 169 163 159 168 166 162 167 169 166 164 167 156 154 169 172 187 193 194 196 200 202 206 207 189 147 264 254 174 192 194 198 201 202 198 196 191 188 187 186 185
175 174 178 174 168 168 168 161 163 162 164 165 168 163 153 154 168 171 171 203 207 206 204 221 227 209 197 201 225 231 221 213 209 212 213 212 207 204 199 195 195 195 192
178 179 178 177 173 174 170 168 167 169 172 175 176 168 162 169 182 182 186 196 194 186 192 206 222 240 245 237 233 240 234 224 219 216 220 220 213 211 207 202 201 201 200
184 183 180 179 178 176 173 173 175 179 181 179 177 180 176 181 191 193 198 203 207 197 199 213 228 244 253 257 248 242 242 237 230 223 224 227 220 217 214 210 207 207 206
186 184 181 181 179 177 179 179 180 182 181 178 184 189 187 188 189 195 205 210 217 211 207 210 223 239 254 264 265 254 249 246 239 229 222 229 228 221 220 217 214 212 211
186 184 179 181 180 182 183 184 182 183 182 187 191 191 193 193 193 195 202 213 219 210 207 212 226 241 257 260 268 267 253 242 243 237 228 224 228 228 225 223 219 217 216
174 179 180 184 183 185 185 186 184 183 185 190 188 187 195 198 194 193 204 219 214 196 194 199 203 217 251 254 265 280 279 267 256 248 236 226 224 230 233 231 226 221 221
173 167 169 173 178 185 184 182 182 178 187 187 182 185 192 197 197 194 208 219 198 186 192 201 190 189 219 233 244 264 277 279 281 271 258 245 234 233 236 235 231 229 227
160 151 157 161 166 169 167 159 164 172 182 174 181 189 184 189 188 189 199 198 177 174 182 176 184 190 208 214 237 271 288 288 292 285 279 279 270 261 252 247 242 240 234
136 142 149 152 152 151 163 171 177 191 176 163 166 158 166 167 164 167 173 156 158 173 184 175 171 184 213 164 152 299 299 295 310 312 313 318 318 314 302 280 269 260 253
118 127 132 148 146 151 168 178 163 141 135 133 106 89 91 110 124 140 135 130 132 132 129 151 163 170 197 174 177 216 292 306 332 354 355 350 340 352 350 338 319 292 275
65 82 109 117 125 143 151 136 113 111 110 113 91 75 56 63 72 81 94 98 90 96 91 56 3 200 217 198 183 191 226 253 327 13 25 20 13 11 4 8 7 355 342
53 67 77 79 87 106 132 138 144 148 146 130 110 89 65 58 60 64 71 75 72 65 59 42 38 27 83 226 98 345 246 227 233 309 23 36 33 24 16 16 19 25 29
41 52 63 68 60 60 88 113 111 102 107 105 99 88 75 65 60 60 62 65 65 61 56 50 50 53 48 46 36 10 4 12 336 255 304 27 38 29 28 27 26 30 35
41 47 57 65 59 60 68 75 89 100 103 104 97 93 83 72 62 58 62 63 63 62 61 60 62 63 63 64 56 48 41 31 11 360 11 33 32 25 30 33 27 30 38